Regional Weather Roundup
Issued by NWS

Home | Current Version | Previous Version | Graphics & Text | Print | Product List | Glossary On
Versions: 1 2 3 4 5 6 7 8 9 10 11 12 13 14 15 16 17 18 19 20 21 22 23 24 25 26 27 28 29 30 31 32 33 34 35 36 37 38 39 40 41 42 43 44 45 46 47 48 49 50
000
ASUS45 KCYS 312010
RWRWY

WYOMING REGIONAL WEATHER ROUNDUP
NATIONAL WEATHER SERVICE CHEYENNE WY
100 PM MST SAT JAN 31 2015

NOTE:  "FAIR" INDICATES FEW OR NO CLOUDS BELOW 12,000 FEET
WITH NO SIGNIFICANT WEATHER AND/OR OBSTRUCTIONS TO VISIBILITY.

WYZ001-312100-
YELLOWSTONE NATIONAL PARK

CITY           SKY/WX    TMP DP  RH WIND       PRES   REMARKS
LK YELLOWSTONE   N/A     11   2  67 SE3       29.98F
W YELLOWSTONE  NOT AVBL

$$
WYZ002>013-054>058-071-098>099-312100-
NORTHERN WYOMING

CITY           SKY/WX    TMP DP  RH WIND       PRES   REMARKS
JACKSON        SUNNY     14  12  92 N5        30.03F WCI   6
CODY           FAIR      39  18  41 N17       29.91S WCI  30
GREYBULL       CLOUDY    28  27  96 VRB3      29.93S FOG
WORLAND        CLOUDY    30  26  85 SE5       29.92F FOG     WCI  25
SHERIDAN       FAIR      36  23  59 NW23      29.96R WCI  24
BUFFALO        FAIR      34  19  54 N32G46    29.87F WCI  20
GILLETTE       FAIR      42  23  46 NW16      29.86F
HULETT           N/A    N/A N/A N/A MISG        N/A
NEWCASTLE      FAIR      37  23  56 CALM      29.89F

$$
WYZ014>020-022>026-101>103-312100-
CENTRAL WYOMING

CITY           SKY/WX    TMP DP  RH WIND       PRES   REMARKS
BIG PINEY      FAIR      40  16  37 N18G26    29.93S WCI  31
PINEDALE       FAIR      34  16  47 W26G32    29.90F WCI  21
DUBOIS         FAIR      39   3  22 NW17G28   29.89S WCI  30
LANDER         FAIR      36  28  73 CALM      29.91R
RIVERTON       FAIR      32  28  85 CALM      29.91R
CASPER         FAIR      42  18  37 N16       29.86S
DOUGLAS        FAIR      43  24  47 VRB3      29.85F

$$
WYZ021-027>030-104>119-312100-
SOUTHERN WYOMING

CITY           SKY/WX    TMP DP  RH WIND       PRES   REMARKS
EVANSTON       FAIR      36  28  73 VRB6      29.99F WCI  31
KEMMERER       FAIR      34  27  75 W20       29.96R WCI  22
FORT BRIDGER   FAIR      39  31  73 W17       29.99S WCI  30
ROCK SPRINGS   FAIR      37  28  70 SW21      29.89F WCI  26
DIXON          CLOUDY    36  29  78 W6        29.93F WCI  31
RAWLINS        FAIR      41  21  44 W16       29.85F
SARATOGA       FAIR      34  28  80 CALM      29.87F
LARAMIE        CLOUDY    32  26  78 W8        29.81F WCI  25
CHEYENNE       PTSUNNY   36  28  73 CALM      29.80F
TORRINGTON     CLOUDY    37  25  61 CALM      29.84F
PINE BLUFFS    LGT RAIN  32  30  93 N6        29.83F WCI  26

$$



USA.gov is the U.S. government's official web portal to all federal, state and local government web resources and services.